Location: Newark
(46.7000°N, 60.6000°W)
Time: 15:17:37
(UTC+00:00)

A-11 Canister half - Pass Details

Date: 05 November 2020
Orbit: 1516 x 1684 km, 47.2° (Epoch: 03 December)

Event Time Altitude Azimuth Distance (km) Brightness Sun altitude
Rises 01:58:57 0° 279° (W) 4,933 12.1 -51.9°
Reaches altitude 10° 02:02:08 10° 279° (W) 3,935 11.4 -52.3°
Enters shadow 02:05:52 27° 279° (W) 2,818 10.5 -52.7°
